{"data":{"norad_id":54851,"epoch":"2026-05-25T02:59:35.751840Z","epoch_age_seconds":61299,"freshness":"FRESH","line1":"1 54851U 22177AH  26145.12471935  .00000373  00000+0  23070-4 0  9990","line2":"2 54851  43.0062  49.6395 0001246 289.5425  70.5292 15.27575522188782","mean_motion":15.27575522,"eccentricity":0.0001246,"inclination_deg":43.0062,"raan_deg":49.6395,"arg_perigee_deg":289.5425,"mean_anomaly_deg":70.5292,"bstar":2.307e-5,"rev_number":18878,"period_min":94.267025051217,"perigee_km":482.20759935706,"apogee_km":483.91741027366,"semimajor_km":6861.1995048154,"source":"CELESTRAK","updated_at":"2026-05-25T13:38:17.725710Z"}}